User: anonymous   Login
Location: Pace/Milton
(30.6162°N, 87.1503°W)
Time: 23:17:05
(UTC-05:00)
Language:

Hubble Space Telescope - Orbit

View from above orbital plane
View from above orbital plane
View from above satellite
View from above satellite

Ground track
Ground track

The orbit data is extracted from the following two-line orbital elements,

1 20580U 90037B   22221.20253565  .00001693  00000-0  88762-4 0  9995
2 20580  28.4689 179.2321 0002418 240.3773 140.8348 15.10738560574460
Epoch (UTC): 09 August 2022 04:51:39
Eccentricity: 0.0002418
inclination: 28.4689°
perigee height: 532 km
apogee height: 535 km
right ascension of ascending node: 179.2321°
argument of perigee: 240.3773°
revolutions per day: 15.10738560
mean anomaly at epoch: 140.8348°
orbit number at epoch: 57446

The dashed part of the orbit path shows where the satellite is in the earth's shadow,  

DLR